Regional Weather Roundup
Issued by NWS

Home | Current Version | Previous Version | Graphics & Text | Print | Product List | Glossary On
Versions: 1 2 3 4 5 6 7 8 9 10 11 12 13 14 15 16 17 18 19 20 21 22 23 24 25 26 27 28 29 30 31 32 33 34 35 36 37 38 39 40 41 42 43 44 45 46 47 48 49 50
000
ASUS43 KMKX 260911
RWRWI

WISCONSIN REGIONAL WEATHER ROUNDUP
NATIONAL WEATHER SERVICE MILWAUKEE/SULLIVAN WI
400 AM CDT FRI AUG 26 2016

NOTE: "FAIR" INDICATES FEW OR NO CLOUDS BELOW 12,000 FEET WITH NO
SIGNIFICANT WEATHER AND/OR OBSTRUCTIONS TO VISIBILITY.

WIZ001-002-006>008-014>016-023>028-261000-
NORTHWEST WISCONSIN

CITY           SKY/WX    TMP DP  RH WIND       PRES   REMARKS
SUPERIOR ARPT  CLOUDY    57  54  89 W5        30.09F
ASHLAND        CLOUDY    57  55  93 SW6       30.09R
HAYWARD        FAIR      52  50  93 SW3       30.12R
SIREN          FAIR      55  54  97 CALM      30.13S
CUMBERLAND     FAIR      54  52  94 W5        30.13S
RICE LAKE      FAIR      52  51  94 CALM      30.14F FOG
CHETEK         NOT AVBL
LADYSMITH      FAIR      56  54  94 W3        30.14S
EAU CLAIRE     FAIR      56  54  93 S3        30.12S
MENOMONIE      FAIR      57  54  91 W5        30.13S
NEW RICHMOND   FAIR      54  54 100 CALM      30.14S FOG
OSCEOLA        FAIR      51  51 100 CALM      30.16S
$$

WIZ003>005-009-010-017-018-261000-
NORTH CENTRAL WISCONSIN

CITY           SKY/WX    TMP DP  RH WIND       PRES   REMARKS
MANITOWISH WTR NOT AVBL
ARBOR VITAE    FAIR      57  55  95 W3        30.10R
WOODRUFF       FAIR      57  55  95 W3        30.10R
RHINELANDER    FAIR      52  52 100 W6        30.11R
EAGLE RIVER    FAIR      51  51 100 CALM      30.09S
LAND O LAKES   FAIR      53  52  99 CALM      30.09F
PHILLIPS       FAIR      53  53  99 CALM      30.11R
TOMAHAWK       FAIR      50  49  97 CALM      30.12R
MEDFORD        FAIR      52  52 100 W6        30.13R
MERRILL        FAIR      54  54  99 W6        30.12R
$$

WIZ029-030-035-036-043>047-261000-
CENTRAL WISCONSIN

CITY           SKY/WX    TMP DP  RH WIND       PRES   REMARKS
WAUSAU         FAIR      56  53  90 W8        30.10R
MOSINEE        FAIR      54  54 100 W6        30.13R
MARSHFIELD     FAIR      55  52  89 W3        30.12R
STEVENS POINT  FAIR      56  53  88 CALM      30.13R
WAUPACA        FAIR      59  57  93 W5        30.12R
WAUTOMA        FAIR      55  54  96 CALM      30.13R
WISC RAPIDS    FAIR      57  56  96 W5        30.14R
CAMP DOUGLAS   FAIR      50  50 100 W3        30.13R FOG
$$

WIZ011>013-019>022-031-037>040-048>050-261000-
NORTHEAST WISCONSIN

CITY           SKY/WX    TMP DP  RH WIND       PRES   REMARKS
ANTIGO         FAIR      52  52  99 CALM      30.11R
SHAWANO        FAIR      59  55  86 W3        30.10S
OCONTO         NOT AVBL
STURGEON BAY   FAIR      64  56  75 NW12      30.09R
GREEN BAY      FAIR      57  57 100 W5        30.09S
MANITOWOC      FAIR      60  55  83 W6        30.11R
APPLETON       FAIR      55  55 100 W7        30.10R
CLINTONVILLE   FAIR      57  54  88 CALM      30.10S
OSHKOSH        FAIR      59  55  87 SW5       30.11R
$$

WIZ032>034-041-042-053>061-261000-
SOUTHWEST WISCONSIN

CITY           SKY/WX    TMP DP  RH WIND       PRES   REMARKS
LA CROSSE      FAIR      58  58 100 N3        30.13S
SPARTA         FAIR      50  50 100 CALM      30.14S
VIROQUA        FAIR      57  57 100 CALM      30.15R
BOSCOBEL       MOCLDY    59  58  96 CALM      30.15R FOG
PRAIRIE DU CHI FAIR      59  57  94 CALM      30.14S
PLATTEVILLE    FAIR      59  59 100 N5        30.14S
$$

WIZ056-057-062-063-064-067-068-261000-
SOUTH CENTRAL WISCONSIN

CITY           SKY/WX    TMP DP  RH WIND       PRES   REMARKS
REEDSBURG      NOT AVBL
BARABOO/DELLS  FAIR      56  54  92 S3        30.14R
LONE ROCK      FOG       58  57  97 CALM      30.14S VSB 1/4
MINERAL POINT  FAIR      61  59  94 CALM      30.14S
MADISON        FAIR      59  59 100 CALM      30.13R
MIDDLETON      FAIR      59  59 100 CALM      30.14S
WATERTOWN      FAIR      61  61 100 CALM      30.12S
MONROE         FAIR      63  59  88 N6        30.13F
JANESVILLE     FOG       61  61 100 CALM      30.12S VSB 1
$$

WIZ051-052-058>065-066-070>072-261000-
SOUTHEAST WISCONSIN

CITY           SKY/WX    TMP DP  RH WIND       PRES   REMARKS
MILWAUKEE      FAIR      68  61  78 NW6       30.11S
WAUKESHA       FAIR      61  57  88 W5        30.13S
MILWAUKEE/TIMM FAIR      63  55  77 W3        30.13R
RACINE         FAIR      65  61  87 NW6       30.12S
BURLINGTON     FAIR      59  58  98 CALM      30.12S
KENOSHA        FAIR      65  61  87 NW5       30.11S
FOND DU LAC    FAIR      60  56  86 W5        30.12R
SHEBOYGAN      FAIR      56  55  97 W3        30.11R
WEST BEND      FAIR      61  57  88 W3        30.12S
JUNEAU         FAIR      59  57  93 CALM      30.14R
$$

LSZ147-162-261000-
LAKE SUPERIOR

STATION/POSITION TIME  TEMP    WIND        PRES    WAVE
                       AIR SEA DIR/SP/G            HT/PER
                 (UTC) (F)     (DEG/KT/KT) (MB)    (FT/S)
W MID LAKE BUOY  0850   64 66  290/ 12/ 14 1016.2R   2/ 4
DEVILS ISLAND    0800   63     270/ 12/ 15 1017.6F
PORT WING        0800   63     280/ 10/ 14 1018.3F
SAXON HARBOR     0800   60     210/  6/ 10 1017.9S
$$

LMZ867-665-643>646-261000-
LAKE MICHIGAN

STATION/POSITION TIME  TEMP    WIND        PRES    WAVE
                       AIR SEA DIR/SP/G            HT/PER
                 (UTC) (F)     (DEG/KT/KT) (MB)    (FT/S)
CHAMBERS ISLAND  0800   64     240/  3/  9 1017.6R
N MID LAKE BUOY  0850   67 70  290/ 12/ 14 1016.7R   1/ 3
NORTHPORT PIER   0800   66     290/  9/ 12 1017.3R
SISTER BAY       0837   66     310/ 16/ 18   N/A
KEWAUNEE LAKESHO 0800   62     280/  3/  4 1017.7R
SHEBOYGAN LAKESH 0900   65     280/  5/  6 1018.9R
PORT WASHINGTON  0800   66     270/  3/  4 1020.0
ATWATER BUOY     0900   58 51  280/  4/  4   N/A
MILWAUKEE LAKESH 0810   68     300/  5/  5   N/A
S MID LAKE BUOY  0850   72 74  330/ 14/ 16 1018.3S   2/ 3
KENOSHA   LAKESH 0900   67     310/  8/ 10 1019.0S
$$

TC  - TEMPERATURE IN CELSIUS
VSB - VISIBILITY IN STATUTE MILES
WCI - WIND CHILL INDEX
HX  - HEAT INDEX





USA.gov is the U.S. government's official web portal to all federal, state and local government web resources and services.